Time,TemperatureF,DewpointF,PressureIn,WindDirection,WindDirectionDegrees,WindSpeedMPH,WindSpeedGustMPH,Humidity,HourlyPrecipIn,Conditions,Clouds,dailyrainin,SoftwareType,DateUTC
2013-05-14 00:00:00,36.4,29.0,29.83,SSW,202,3.0,5.0,76,0.00,,,0.00,Rainwise IP-100,2013-05-14 04:00:00,
2013-05-14 00:01:00,36.3,29.0,29.83,SSW,202,2.0,5.0,76,0.00,,,0.00,Rainwise IP-100,2013-05-14 04:01:00,
2013-05-14 00:06:00,35.8,29.0,29.82,SSW,202,1.0,4.0,76,0.00,,,0.00,Rainwise IP-100,2013-05-14 04:06:00,
2013-05-14 00:11:00,35.2,28.0,29.82,SSW,202,2.0,2.0,77,0.00,,,0.00,Rainwise IP-100,2013-05-14 04:11:00,
2013-05-14 00:16:00,34.9,28.0,29.82,SSW,202,3.0,5.0,76,0.00,,,0.00,Rainwise IP-100,2013-05-14 04:16:00,
2013-05-14 00:21:00,34.8,28.0,29.82,SSW,202,4.0,6.0,76,0.00,,,0.00,Rainwise IP-100,2013-05-14 04:21:00,
2013-05-14 00:26:00,34.8,28.0,29.82,SSW,202,4.0,6.0,74,0.00,,,0.00,Rainwise IP-100,2013-05-14 04:26:00,
2013-05-14 00:31:00,34.7,28.0,29.82,SSW,202,3.0,4.0,74,0.00,,,0.00,Rainwise IP-100,2013-05-14 04:31:00,
2013-05-14 00:36:00,34.2,26.0,29.82,SSW,202,5.0,5.0,71,0.00,,,0.00,Rainwise IP-100,2013-05-14 04:36:00,
2013-05-14 00:42:00,33.7,26.0,29.82,SSW,202,4.0,5.0,72,0.00,,,0.00,Rainwise IP-100,2013-05-14 04:42:00,
2013-05-14 00:47:00,33.6,26.0,29.82,SSW,202,1.0,5.0,70,0.00,,,0.00,Rainwise IP-100,2013-05-14 04:47:00,
2013-05-14 00:52:00,33.7,26.0,29.82,SSW,202,2.0,4.0,71,0.00,,,0.00,Rainwise IP-100,2013-05-14 04:52:00,
2013-05-14 00:57:00,33.7,26.0,29.82,SSW,202,3.0,5.0,71,0.00,,,0.00,Rainwise IP-100,2013-05-14 04:57:00,
2013-05-14 01:02:00,33.9,26.0,29.83,SSW,202,2.0,4.0,72,0.00,,,0.00,Rainwise IP-100,2013-05-14 05:02:00,
2013-05-14 01:07:00,33.8,26.0,29.83,SW,225,4.0,5.0,70,0.00,,,0.00,Rainwise IP-100,2013-05-14 05:07:00,
2013-05-14 01:12:00,33.8,26.0,29.83,SW,225,4.0,5.0,71,0.00,,,0.00,Rainwise IP-100,2013-05-14 05:12:00,
2013-05-14 01:18:00,33.7,26.0,29.82,SW,225,3.0,5.0,71,0.00,,,0.00,Rainwise IP-100,2013-05-14 05:18:00,
2013-05-14 01:23:00,33.8,26.0,29.82,SW,225,4.0,6.0,71,0.00,,,0.00,Rainwise IP-100,2013-05-14 05:23:00,
2013-05-14 01:28:00,33.9,26.0,29.82,SSW,202,3.0,6.0,71,0.00,,,0.00,Rainwise IP-100,2013-05-14 05:28:00,
2013-05-14 01:33:00,33.9,26.0,29.82,WSW,247,3.0,6.0,71,0.00,,,0.00,Rainwise IP-100,2013-05-14 05:33:00,
2013-05-14 01:38:00,34.1,26.0,29.82,SW,225,3.0,7.0,72,0.00,,,0.00,Rainwise IP-100,2013-05-14 05:38:00,
2013-05-14 01:43:00,33.9,26.0,29.83,SW,225,3.0,6.0,72,0.00,,,0.00,Rainwise IP-100,2013-05-14 05:43:00,
2013-05-14 01:48:00,33.8,26.0,29.82,SW,225,4.0,5.0,71,0.00,,,0.00,Rainwise IP-100,2013-05-14 05:48:00,
2013-05-14 01:53:00,33.7,26.0,29.82,SW,225,2.0,6.0,71,0.00,,,0.00,Rainwise IP-100,2013-05-14 05:53:00,
2013-05-14 01:59:00,33.5,26.0,29.82,SW,225,1.0,4.0,71,0.00,,,0.00,Rainwise IP-100,2013-05-14 05:59:00,
2013-05-14 02:04:00,33.0,26.0,29.82,SW,225,1.0,1.0,72,0.00,,,0.00,Rainwise IP-100,2013-05-14 06:04:00,
2013-05-14 02:09:00,33.0,24.0,29.82,SW,225,6.0,7.0,66,0.00,,,0.00,Rainwise IP-100,2013-05-14 06:09:00,
2013-05-14 02:14:00,33.6,24.0,29.82,SW,225,5.0,7.0,66,0.00,,,0.00,Rainwise IP-100,2013-05-14 06:14:00,
2013-05-14 02:19:00,33.9,24.0,29.82,SW,225,3.0,6.0,67,0.00,,,0.00,Rainwise IP-100,2013-05-14 06:19:00,
2013-05-14 02:24:00,33.9,24.0,29.82,SW,225,3.0,5.0,67,0.00,,,0.00,Rainwise IP-100,2013-05-14 06:24:00,
2013-05-14 02:29:00,33.7,24.0,29.82,SW,225,3.0,5.0,67,0.00,,,0.00,Rainwise IP-100,2013-05-14 06:29:00,
2013-05-14 02:35:00,33.4,24.0,29.82,SW,225,3.0,5.0,66,0.00,,,0.00,Rainwise IP-100,2013-05-14 06:35:00,
2013-05-14 02:40:00,33.2,24.0,29.82,SW,225,1.0,5.0,66,0.00,,,0.00,Rainwise IP-100,2013-05-14 06:40:00,
2013-05-14 02:45:00,32.8,23.0,29.82,SW,225,3.0,4.0,65,0.00,,,0.00,Rainwise IP-100,2013-05-14 06:45:00,
2013-05-14 02:50:00,32.9,23.0,29.82,SW,225,2.0,4.0,64,0.00,,,0.00,Rainwise IP-100,2013-05-14 06:50:00,
2013-05-14 02:55:00,33.3,23.0,29.82,SW,225,5.0,6.0,63,0.00,,,0.00,Rainwise IP-100,2013-05-14 06:55:00,
2013-05-14 03:00:00,33.7,24.0,29.81,SW,225,6.0,7.0,63,0.00,,,0.00,Rainwise IP-100,2013-05-14 07:00:00,
2013-05-14 03:05:00,33.9,24.0,29.81,WSW,247,5.0,7.0,64,0.00,,,0.00,Rainwise IP-100,2013-05-14 07:05:00,
2013-05-14 03:10:00,34.1,24.0,29.81,SW,225,5.0,6.0,65,0.00,,,0.00,Rainwise IP-100,2013-05-14 07:10:00,
2013-05-14 03:16:00,34.8,24.0,29.81,WSW,247,3.0,8.0,66,0.00,,,0.00,Rainwise IP-100,2013-05-14 07:16:00,
2013-05-14 03:21:00,34.7,24.0,29.81,WSW,247,4.0,7.0,66,0.00,,,0.00,Rainwise IP-100,2013-05-14 07:21:00,
2013-05-14 03:26:00,34.6,24.0,29.81,SW,225,4.0,7.0,66,0.00,,,0.00,Rainwise IP-100,2013-05-14 07:26:00,
2013-05-14 03:31:00,34.4,24.0,29.82,SW,225,3.0,6.0,65,0.00,,,0.00,Rainwise IP-100,2013-05-14 07:31:00,
2013-05-14 03:36:00,34.4,24.0,29.82,SW,225,3.0,6.0,65,0.00,,,0.00,Rainwise IP-100,2013-05-14 07:36:00,
2013-05-14 03:41:00,34.3,24.0,29.82,SW,225,2.0,6.0,64,0.00,,,0.00,Rainwise IP-100,2013-05-14 07:41:00,
2013-05-14 03:46:00,34.0,24.0,29.82,SW,225,1.0,5.0,65,0.00,,,0.00,Rainwise IP-100,2013-05-14 07:46:00,
2013-05-14 03:52:00,33.6,24.0,29.82,SW,225,1.0,2.0,65,0.00,,,0.00,Rainwise IP-100,2013-05-14 07:52:00,
2013-05-14 03:56:00,33.2,24.0,29.82,SW,225,0.0,2.0,66,0.00,,,0.00,Rainwise IP-100,2013-05-14 07:56:00,
2013-05-14 04:01:00,33.0,23.0,29.82,SW,225,0.0,1.0,65,0.00,,,0.00,Rainwise IP-100,2013-05-14 08:01:00,
2013-05-14 04:07:00,33.3,23.0,29.82,East,90,4.0,4.0,65,0.00,,,0.00,Rainwise IP-100,2013-05-14 08:07:00,
2013-05-14 04:12:00,33.5,24.0,29.82,East,90,3.0,5.0,65,0.00,,,0.00,Rainwise IP-100,2013-05-14 08:12:00,
2013-05-14 04:17:00,33.3,23.0,29.82,East,90,1.0,3.0,64,0.00,,,0.00,Rainwise IP-100,2013-05-14 08:17:00,
2013-05-14 04:22:00,33.6,23.0,29.82,East,90,1.0,4.0,62,0.00,,,0.00,Rainwise IP-100,2013-05-14 08:22:00,
2013-05-14 04:27:00,33.7,24.0,29.82,East,90,2.0,3.0,63,0.00,,,0.00,Rainwise IP-100,2013-05-14 08:27:00,
2013-05-14 04:32:00,33.8,24.0,29.82,East,90,1.0,4.0,63,0.00,,,0.00,Rainwise IP-100,2013-05-14 08:32:00,
2013-05-14 04:37:00,33.7,24.0,29.82,East,90,1.0,4.0,63,0.00,,,0.00,Rainwise IP-100,2013-05-14 08:37:00,
2013-05-14 04:43:00,33.4,23.0,29.82,East,90,3.0,3.0,64,0.00,,,0.00,Rainwise IP-100,2013-05-14 08:43:00,
2013-05-14 04:48:00,33.3,23.0,29.81,East,90,3.0,4.0,63,0.00,,,0.00,Rainwise IP-100,2013-05-14 08:48:00,
2013-05-14 04:53:00,33.3,23.0,29.82,East,90,3.0,3.0,62,0.00,,,0.00,Rainwise IP-100,2013-05-14 08:53:00,
2013-05-14 04:58:00,33.4,23.0,29.81,East,90,3.0,3.0,61,0.00,,,0.00,Rainwise IP-100,2013-05-14 08:58:00,
2013-05-14 05:03:00,33.4,23.0,29.81,East,90,1.0,3.0,61,0.00,,,0.00,Rainwise IP-100,2013-05-14 09:03:00,
2013-05-14 05:08:00,33.2,23.0,29.82,East,90,0.0,2.0,61,0.00,,,0.00,Rainwise IP-100,2013-05-14 09:08:00,
2013-05-14 05:13:00,32.7,23.0,29.82,East,90,1.0,2.0,61,0.00,,,0.00,Rainwise IP-100,2013-05-14 09:13:00,
2013-05-14 05:18:00,32.5,21.0,29.82,East,90,0.0,2.0,60,0.00,,,0.00,Rainwise IP-100,2013-05-14 09:18:00,
2013-05-14 05:24:00,32.9,21.0,29.82,East,90,2.0,2.0,59,0.00,,,0.00,Rainwise IP-100,2013-05-14 09:24:00,
2013-05-14 05:29:00,33.3,21.0,29.82,East,90,2.0,2.0,58,0.00,,,0.00,Rainwise IP-100,2013-05-14 09:29:00,
2013-05-14 05:31:00,33.5,23.0,29.82,ESE,112,4.0,4.0,58,0.00,,,0.00,Rainwise IP-100,2013-05-14 09:31:00,
2013-05-14 05:36:00,33.6,23.0,29.82,ESE,112,3.0,4.0,58,0.00,,,0.00,Rainwise IP-100,2013-05-14 09:36:00,
2013-05-14 05:41:00,33.8,21.0,29.82,ESE,112,3.0,4.0,57,0.00,,,0.00,Rainwise IP-100,2013-05-14 09:41:00,
2013-05-14 05:46:00,33.9,21.0,29.82,ESE,112,1.0,4.0,57,0.00,,,0.00,Rainwise IP-100,2013-05-14 09:46:00,
2013-05-14 05:51:00,33.9,21.0,29.82,ESE,112,2.0,3.0,56,0.00,,,0.00,Rainwise IP-100,2013-05-14 09:51:00,
2013-05-14 05:56:00,34.1,21.0,29.82,ESE,112,1.0,2.0,56,0.00,,,0.00,Rainwise IP-100,2013-05-14 09:56:00,
2013-05-14 06:01:00,34.1,21.0,29.82,ESE,112,0.0,1.0,56,0.00,,,0.00,Rainwise IP-100,2013-05-14 10:01:00,
2013-05-14 06:06:00,34.1,21.0,29.83,ESE,112,0.0,0.0,56,0.00,,,0.00,Rainwise IP-100,2013-05-14 10:06:00,
2013-05-14 06:12:00,33.9,21.0,29.83,ESE,112,0.0,0.0,56,0.00,,,0.00,Rainwise IP-100,2013-05-14 10:12:00,
2013-05-14 06:17:00,34.0,21.0,29.83,ESE,112,0.0,0.0,56,0.00,,,0.00,Rainwise IP-100,2013-05-14 10:17:00,
2013-05-14 06:22:00,34.2,21.0,29.83,ESE,112,0.0,0.0,56,0.00,,,0.00,Rainwise IP-100,2013-05-14 10:22:00,
2013-05-14 06:27:00,34.5,21.0,29.83,ESE,112,0.0,0.0,55,0.00,,,0.00,Rainwise IP-100,2013-05-14 10:27:00,
2013-05-14 06:32:00,34.9,21.0,29.83,ESE,112,1.0,0.0,55,0.00,,,0.00,Rainwise IP-100,2013-05-14 10:32:00,
2013-05-14 06:37:00,35.3,21.0,29.84,ESE,112,2.0,2.0,55,0.00,,,0.00,Rainwise IP-100,2013-05-14 10:37:00,
2013-05-14 06:42:00,35.6,21.0,29.84,ESE,112,2.0,3.0,54,0.00,,,0.00,Rainwise IP-100,2013-05-14 10:42:00,
2013-05-14 06:48:00,35.8,21.0,29.84,ESE,112,0.0,3.0,54,0.00,,,0.00,Rainwise IP-100,2013-05-14 10:48:00,
2013-05-14 06:53:00,35.9,21.0,29.84,ESE,112,0.0,0.0,53,0.00,,,0.00,Rainwise IP-100,2013-05-14 10:53:00,
2013-05-14 06:58:00,35.9,21.0,29.84,ESE,112,0.0,1.0,53,0.00,,,0.00,Rainwise IP-100,2013-05-14 10:58:00,
2013-05-14 07:01:00,35.9,21.0,29.84,ESE,112,1.0,1.0,52,0.00,,,0.00,Rainwise IP-100,2013-05-14 11:01:00,
2013-05-14 07:07:00,36.3,21.0,29.84,SSE,157,1.0,2.0,52,0.00,,,0.00,Rainwise IP-100,2013-05-14 11:07:00,
2013-05-14 07:12:00,36.7,21.0,29.84,SW,225,1.0,3.0,51,0.00,,,0.00,Rainwise IP-100,2013-05-14 11:12:00,
2013-05-14 07:17:00,37.3,21.0,29.84,SSW,202,1.0,3.0,51,0.00,,,0.00,Rainwise IP-100,2013-05-14 11:17:00,
2013-05-14 07:22:00,37.9,23.0,29.84,SSW,202,2.0,3.0,51,0.00,,,0.00,Rainwise IP-100,2013-05-14 11:22:00,
2013-05-14 07:27:00,38.6,23.0,29.84,SSW,202,6.0,6.0,51,0.00,,,0.00,Rainwise IP-100,2013-05-14 11:27:00,
2013-05-14 07:32:00,39.4,23.0,29.84,SSW,202,5.0,6.0,52,0.00,,,0.00,Rainwise IP-100,2013-05-14 11:32:00,
2013-05-14 07:37:00,39.8,24.0,29.84,South,180,4.0,5.0,51,0.00,,,0.00,Rainwise IP-100,2013-05-14 11:37:00,
2013-05-14 07:42:00,40.0,24.0,29.84,South,180,3.0,6.0,52,0.00,,,0.00,Rainwise IP-100,2013-05-14 11:42:00,
2013-05-14 07:48:00,40.2,24.0,29.84,South,180,5.0,7.0,52,0.00,,,0.00,Rainwise IP-100,2013-05-14 11:48:00,
2013-05-14 07:53:00,40.3,24.0,29.84,South,180,5.0,6.0,53,0.00,,,0.00,Rainwise IP-100,2013-05-14 11:53:00,
2013-05-14 07:56:00,40.0,24.0,29.84,South,180,5.0,5.0,52,0.00,,,0.00,Rainwise IP-100,2013-05-14 11:56:00,
2013-05-14 08:01:00,40.3,24.0,29.84,South,180,2.0,6.0,53,0.00,,,0.00,Rainwise IP-100,2013-05-14 12:01:00,
2013-05-14 08:06:00,40.7,26.0,29.84,South,180,1.0,6.0,54,0.00,,,0.00,Rainwise IP-100,2013-05-14 12:06:00,
2013-05-14 08:11:00,40.9,26.0,29.84,South,180,3.0,6.0,55,0.00,,,0.00,Rainwise IP-100,2013-05-14 12:11:00,
2013-05-14 08:16:00,41.4,28.0,29.84,South,180,2.0,6.0,57,0.00,,,0.00,Rainwise IP-100,2013-05-14 12:16:00,
2013-05-14 08:21:00,42.5,29.0,29.84,SW,225,6.0,7.0,57,0.00,,,0.00,Rainwise IP-100,2013-05-14 12:21:00,
2013-05-14 08:26:00,43.8,33.0,29.84,SW,225,6.0,7.0,64,0.00,,,0.00,Rainwise IP-100,2013-05-14 12:26:00,
2013-05-14 08:31:00,44.5,36.0,29.84,SSW,202,6.0,7.0,69,0.00,,,0.00,Rainwise IP-100,2013-05-14 12:31:00,
2013-05-14 08:37:00,45.0,37.0,29.84,SW,225,4.0,8.0,73,0.00,,,0.00,Rainwise IP-100,2013-05-14 12:37:00,
2013-05-14 08:42:00,46.0,38.0,29.83,South,180,6.0,7.0,74,0.00,,,0.00,Rainwise IP-100,2013-05-14 12:42:00,
2013-05-14 08:47:00,46.8,39.0,29.83,SW,225,7.0,10.0,74,0.00,,,0.00,Rainwise IP-100,2013-05-14 12:47:00,
2013-05-14 08:52:00,46.9,39.0,29.83,West,270,4.0,9.0,74,0.00,,,0.00,Rainwise IP-100,2013-05-14 12:52:00,
2013-05-14 08:57:00,46.5,39.0,29.83,WSW,247,6.0,9.0,74,0.00,,,0.00,Rainwise IP-100,2013-05-14 12:57:00,
2013-05-14 09:02:00,46.9,39.0,29.84,SW,225,7.0,9.0,74,0.00,,,0.00,Rainwise IP-100,2013-05-14 13:02:00,
2013-05-14 09:07:00,47.5,39.0,29.83,SW,225,7.0,10.0,74,0.00,,,0.00,Rainwise IP-100,2013-05-14 13:07:00,
2013-05-14 09:12:00,48.1,40.0,29.83,WSW,247,4.0,13.0,73,0.00,,,0.00,Rainwise IP-100,2013-05-14 13:12:00,
2013-05-14 09:18:00,48.4,39.0,29.83,SW,225,10.0,13.0,72,0.00,,,0.00,Rainwise IP-100,2013-05-14 13:18:00,
2013-05-14 09:23:00,48.5,41.0,29.83,SW,225,5.0,12.0,73,0.00,,,0.00,Rainwise IP-100,2013-05-14 13:23:00,
2013-05-14 09:28:00,48.6,40.0,29.83,SW,225,7.0,9.0,70,0.00,,,0.00,Rainwise IP-100,2013-05-14 13:28:00,
2013-05-14 09:33:00,48.8,40.0,29.82,SW,225,7.0,12.0,72,0.00,,,0.00,Rainwise IP-100,2013-05-14 13:33:00,
2013-05-14 09:38:00,48.6,40.0,29.82,WSW,247,6.0,10.0,70,0.00,,,0.00,Rainwise IP-100,2013-05-14 13:38:00,
2013-05-14 09:43:00,49.4,40.0,29.82,WSW,247,6.0,9.0,71,0.00,,,0.00,Rainwise IP-100,2013-05-14 13:43:00,
2013-05-14 09:46:00,49.7,37.0,29.82,SW,225,5.0,12.0,62,0.00,,,0.00,Rainwise IP-100,2013-05-14 13:46:00,
2013-05-14 09:52:00,50.2,39.0,29.82,SSW,202,7.0,13.0,67,0.00,,,0.00,Rainwise IP-100,2013-05-14 13:52:00,
2013-05-14 09:57:00,50.7,35.0,29.81,SW,225,9.0,14.0,55,0.00,,,0.00,Rainwise IP-100,2013-05-14 13:57:00,
2013-05-14 10:02:00,51.2,36.0,29.82,SW,225,10.0,13.0,55,0.00,,,0.00,Rainwise IP-100,2013-05-14 14:02:00,
2013-05-14 10:07:00,51.7,37.0,29.81,South,180,9.0,12.0,57,0.00,,,0.00,Rainwise IP-100,2013-05-14 14:07:00,
2013-05-14 10:12:00,51.7,37.0,29.81,SW,225,7.0,13.0,56,0.00,,,0.00,Rainwise IP-100,2013-05-14 14:12:00,
2013-05-14 10:17:00,51.5,33.0,29.81,SW,225,9.0,15.0,49,0.00,,,0.00,Rainwise IP-100,2013-05-14 14:17:00,
2013-05-14 10:22:00,51.9,35.0,29.81,West,270,10.0,14.0,51,0.00,,,0.00,Rainwise IP-100,2013-05-14 14:22:00,
2013-05-14 10:26:00,51.6,33.0,29.81,SW,225,9.0,13.0,48,0.00,,,0.00,Rainwise IP-100,2013-05-14 14:26:00,
2013-05-14 10:31:00,52.1,35.0,29.81,WNW,292,9.0,14.0,51,0.00,,,0.00,Rainwise IP-100,2013-05-14 14:31:00,
2013-05-14 10:37:00,53.1,32.0,29.81,SW,225,9.0,13.0,45,0.00,,,0.00,Rainwise IP-100,2013-05-14 14:37:00,
2013-05-14 10:42:00,52.9,33.0,29.81,SSW,202,9.0,12.0,48,0.00,,,0.00,Rainwise IP-100,2013-05-14 14:42:00,
2013-05-14 10:47:00,53.2,33.0,29.81,SW,225,9.0,12.0,48,0.00,,,0.00,Rainwise IP-100,2013-05-14 14:47:00,
2013-05-14 10:52:00,52.7,35.0,29.81,West,270,9.0,14.0,51,0.00,,,0.00,Rainwise IP-100,2013-05-14 14:52:00,
2013-05-14 10:57:00,52.7,31.0,29.81,SW,225,6.0,14.0,43,0.00,,,0.00,Rainwise IP-100,2013-05-14 14:57:00,
2013-05-14 11:02:00,53.4,32.0,29.81,SW,225,10.0,12.0,44,0.00,,,0.00,Rainwise IP-100,2013-05-14 15:02:00,
2013-05-14 11:07:00,53.3,31.0,29.81,SSW,202,9.0,11.0,41,0.00,,,0.00,Rainwise IP-100,2013-05-14 15:07:00,
2013-05-14 11:12:00,53.1,32.0,29.82,SW,225,11.0,14.0,45,0.00,,,0.00,Rainwise IP-100,2013-05-14 15:12:00,
2013-05-14 11:17:00,53.2,29.0,29.82,SW,225,5.0,11.0,39,0.00,,,0.00,Rainwise IP-100,2013-05-14 15:17:00,
2013-05-14 11:23:00,53.5,28.0,29.82,WSW,247,8.0,12.0,37,0.00,,,0.00,Rainwise IP-100,2013-05-14 15:23:00,
2013-05-14 11:28:00,53.7,29.0,29.82,SW,225,8.0,14.0,39,0.00,,,0.00,Rainwise IP-100,2013-05-14 15:28:00,
2013-05-14 11:33:00,54.6,31.0,29.81,WSW,247,7.0,12.0,39,0.00,,,0.00,Rainwise IP-100,2013-05-14 15:33:00,
2013-05-14 11:38:00,54.6,31.0,29.81,WSW,247,8.0,13.0,40,0.00,,,0.00,Rainwise IP-100,2013-05-14 15:38:00,
2013-05-14 11:43:00,54.2,31.0,29.81,WSW,247,7.0,15.0,40,0.00,,,0.00,Rainwise IP-100,2013-05-14 15:43:00,
2013-05-14 11:48:00,53.5,28.0,29.81,WSW,247,7.0,12.0,36,0.00,,,0.00,Rainwise IP-100,2013-05-14 15:48:00,
2013-05-14 11:53:00,54.7,28.0,29.81,South,180,10.0,15.0,36,0.00,,,0.00,Rainwise IP-100,2013-05-14 15:53:00,
2013-05-14 11:58:00,55.2,29.0,29.81,SW,225,3.0,13.0,36,0.00,,,0.00,Rainwise IP-100,2013-05-14 15:58:00,
2013-05-14 12:04:00,54.9,31.0,29.80,West,270,4.0,17.0,38,0.00,,,0.00,Rainwise IP-100,2013-05-14 16:04:00,
2013-05-14 12:09:00,55.5,31.0,29.80,SW,225,5.0,14.0,37,0.00,,,0.00,Rainwise IP-100,2013-05-14 16:09:00,
2013-05-14 12:14:00,54.9,31.0,29.80,West,270,9.0,13.0,38,0.00,,,0.00,Rainwise IP-100,2013-05-14 16:14:00,
2013-05-14 12:19:00,55.3,32.0,29.80,SW,225,12.0,15.0,40,0.00,,,0.00,Rainwise IP-100,2013-05-14 16:19:00,
2013-05-14 12:24:00,55.7,31.0,29.80,SSW,202,9.0,14.0,38,0.00,,,0.00,Rainwise IP-100,2013-05-14 16:24:00,
2013-05-14 12:29:00,55.0,28.0,29.81,SW,225,5.0,12.0,33,0.00,,,0.00,Rainwise IP-100,2013-05-14 16:29:00,
2013-05-14 12:34:00,55.8,31.0,29.80,South,180,6.0,11.0,37,0.00,,,0.00,Rainwise IP-100,2013-05-14 16:34:00,
2013-05-14 12:40:00,56.3,31.0,29.80,SW,225,6.0,12.0,37,0.00,,,0.00,Rainwise IP-100,2013-05-14 16:40:00,
2013-05-14 12:45:00,55.4,28.0,29.80,SW,225,7.0,13.0,34,0.00,,,0.00,Rainwise IP-100,2013-05-14 16:45:00,
2013-05-14 12:50:00,54.9,29.0,29.80,West,270,9.0,13.0,36,0.00,,,0.00,Rainwise IP-100,2013-05-14 16:50:00,
2013-05-14 12:55:00,55.0,31.0,29.80,SW,225,6.0,16.0,38,0.00,,,0.00,Rainwise IP-100,2013-05-14 16:55:00,
2013-05-14 13:00:00,55.8,32.0,29.80,SW,225,9.0,14.0,41,0.00,,,0.00,Rainwise IP-100,2013-05-14 17:00:00,
2013-05-14 13:05:00,55.4,29.0,29.80,SW,225,7.0,12.0,36,0.00,,,0.00,Rainwise IP-100,2013-05-14 17:05:00,
2013-05-14 13:10:00,55.6,31.0,29.80,SW,225,6.0,12.0,38,0.00,,,0.00,Rainwise IP-100,2013-05-14 17:10:00,
2013-05-14 13:15:00,55.6,31.0,29.80,South,180,5.0,12.0,37,0.00,,,0.00,Rainwise IP-100,2013-05-14 17:15:00,
2013-05-14 13:21:00,55.8,29.0,29.80,South,180,7.0,12.0,36,0.00,,,0.00,Rainwise IP-100,2013-05-14 17:21:00,
2013-05-14 13:26:00,55.5,29.0,29.79,South,180,9.0,13.0,36,0.00,,,0.00,Rainwise IP-100,2013-05-14 17:26:00,
2013-05-14 13:31:00,55.9,29.0,29.80,South,180,10.0,15.0,36,0.00,,,0.00,Rainwise IP-100,2013-05-14 17:31:00,
2013-05-14 13:36:00,55.4,29.0,29.79,SSW,202,9.0,13.0,36,0.00,,,0.00,Rainwise IP-100,2013-05-14 17:36:00,
2013-05-14 13:41:00,55.3,28.0,29.80,West,270,4.0,12.0,34,0.00,,,0.00,Rainwise IP-100,2013-05-14 17:41:00,
2013-05-14 13:46:00,55.9,28.0,29.79,SSW,202,7.0,14.0,34,0.00,,,0.00,Rainwise IP-100,2013-05-14 17:46:00,
2013-05-14 13:51:00,56.2,28.0,29.79,South,180,13.0,13.0,33,0.00,,,0.00,Rainwise IP-100,2013-05-14 17:51:00,
2013-05-14 13:57:00,55.9,28.0,29.79,South,180,7.0,14.0,33,0.00,,,0.00,Rainwise IP-100,2013-05-14 17:57:00,
2013-05-14 14:02:00,56.2,28.0,29.78,SSE,157,7.0,12.0,34,0.00,,,0.00,Rainwise IP-100,2013-05-14 18:02:00,
2013-05-14 14:07:00,55.7,26.0,29.78,WSW,247,8.0,12.0,32,0.00,,,0.00,Rainwise IP-100,2013-05-14 18:07:00,
2013-05-14 14:12:00,55.6,28.0,29.78,SSW,202,11.0,13.0,34,0.00,,,0.00,Rainwise IP-100,2013-05-14 18:12:00,
2013-05-14 14:17:00,55.8,26.0,29.78,SSW,202,4.0,13.0,31,0.00,,,0.00,Rainwise IP-100,2013-05-14 18:17:00,
2013-05-14 14:22:00,56.0,28.0,29.78,WSW,247,10.0,13.0,33,0.00,,,0.00,Rainwise IP-100,2013-05-14 18:22:00,
2013-05-14 14:27:00,56.3,28.0,29.78,West,270,6.0,15.0,33,0.00,,,0.00,Rainwise IP-100,2013-05-14 18:27:00,
2013-05-14 14:32:00,56.4,29.0,29.78,SW,225,6.0,15.0,34,0.00,,,0.00,Rainwise IP-100,2013-05-14 18:32:00,
2013-05-14 14:38:00,56.7,29.0,29.77,SSW,202,12.0,12.0,35,0.00,,,0.00,Rainwise IP-100,2013-05-14 18:38:00,
2013-05-14 14:43:00,56.4,26.0,29.77,SW,225,5.0,13.0,31,0.00,,,0.00,Rainwise IP-100,2013-05-14 18:43:00,
2013-05-14 14:48:00,56.8,28.0,29.76,SSW,202,2.0,10.0,31,0.00,,,0.00,Rainwise IP-100,2013-05-14 18:48:00,
2013-05-14 14:53:00,57.3,29.0,29.76,South,180,9.0,12.0,34,0.00,,,0.00,Rainwise IP-100,2013-05-14 18:53:00,
2013-05-14 14:58:00,56.9,28.0,29.76,SW,225,7.0,15.0,32,0.00,,,0.00,Rainwise IP-100,2013-05-14 18:58:00,
2013-05-14 15:03:00,56.9,29.0,29.76,SW,225,6.0,14.0,33,0.00,,,0.00,Rainwise IP-100,2013-05-14 19:03:00,
2013-05-14 15:08:00,56.8,28.0,29.75,WSW,247,10.0,13.0,31,0.00,,,0.00,Rainwise IP-100,2013-05-14 19:08:00,
2013-05-14 15:14:00,56.9,26.0,29.74,West,270,7.0,16.0,29,0.00,,,0.00,Rainwise IP-100,2013-05-14 19:14:00,
2013-05-14 15:19:00,57.5,29.0,29.74,SSW,202,2.0,13.0,33,0.00,,,0.00,Rainwise IP-100,2013-05-14 19:19:00,
2013-05-14 15:24:00,58.3,28.0,29.74,SSW,202,10.0,13.0,30,0.00,,,0.00,Rainwise IP-100,2013-05-14 19:24:00,
2013-05-14 15:29:00,58.7,28.0,29.74,SE,135,6.0,12.0,29,0.00,,,0.00,Rainwise IP-100,2013-05-14 19:29:00,
2013-05-14 15:34:00,58.8,29.0,29.74,South,180,7.0,14.0,31,0.00,,,0.00,Rainwise IP-100,2013-05-14 19:34:00,
2013-05-14 15:39:00,58.3,24.0,29.74,SSE,157,6.0,12.0,27,0.00,,,0.00,Rainwise IP-100,2013-05-14 19:39:00,
2013-05-14 15:44:00,57.9,26.0,29.73,SW,225,10.0,13.0,28,0.00,,,0.00,Rainwise IP-100,2013-05-14 19:44:00,
2013-05-14 15:49:00,57.9,26.0,29.73,SW,225,9.0,17.0,29,0.00,,,0.00,Rainwise IP-100,2013-05-14 19:49:00,
2013-05-14 15:55:00,58.4,26.0,29.72,South,180,9.0,15.0,28,0.00,,,0.00,Rainwise IP-100,2013-05-14 19:55:00,
2013-05-14 16:00:00,58.5,28.0,29.72,SSW,202,5.0,17.0,30,0.00,,,0.00,Rainwise IP-100,2013-05-14 20:00:00,
2013-05-14 16:05:00,58.9,26.0,29.72,SW,225,9.0,14.0,28,0.00,,,0.00,Rainwise IP-100,2013-05-14 20:05:00,
2013-05-14 16:10:00,58.2,26.0,29.72,SSW,202,12.0,15.0,28,0.00,,,0.00,Rainwise IP-100,2013-05-14 20:10:00,
2013-05-14 16:15:00,57.5,26.0,29.72,SSW,202,6.0,15.0,29,0.00,,,0.00,Rainwise IP-100,2013-05-14 20:15:00,
2013-05-14 16:20:00,57.5,26.0,29.72,South,180,8.0,12.0,30,0.00,,,0.00,Rainwise IP-100,2013-05-14 20:20:00,
2013-05-14 16:25:00,57.6,28.0,29.71,South,180,7.0,10.0,31,0.00,,,0.00,Rainwise IP-100,2013-05-14 20:25:00,
2013-05-14 16:31:00,57.2,26.0,29.71,South,180,5.0,12.0,29,0.00,,,0.00,Rainwise IP-100,2013-05-14 20:31:00,
2013-05-14 16:36:00,57.2,28.0,29.71,SSW,202,6.0,8.0,32,0.00,,,0.00,Rainwise IP-100,2013-05-14 20:36:00,
2013-05-14 16:41:00,57.3,28.0,29.71,South,180,3.0,7.0,31,0.00,,,0.00,Rainwise IP-100,2013-05-14 20:41:00,
2013-05-14 16:46:00,57.5,28.0,29.71,SSW,202,9.0,11.0,32,0.00,,,0.00,Rainwise IP-100,2013-05-14 20:46:00,
2013-05-14 16:51:00,57.1,28.0,29.71,SW,225,4.0,10.0,32,0.00,,,0.00,Rainwise IP-100,2013-05-14 20:51:00,
2013-05-14 16:56:00,56.9,28.0,29.71,SW,225,10.0,10.0,32,0.00,,,0.00,Rainwise IP-100,2013-05-14 20:56:00,
2013-05-14 17:01:00,57.2,28.0,29.71,SW,225,7.0,11.0,32,0.00,,,0.00,Rainwise IP-100,2013-05-14 21:01:00,
2013-05-14 17:06:00,57.1,28.0,29.71,SSW,202,6.0,9.0,32,0.00,,,0.00,Rainwise IP-100,2013-05-14 21:06:00,
2013-05-14 17:12:00,57.7,28.0,29.71,SSW,202,7.0,7.0,31,0.00,,,0.00,Rainwise IP-100,2013-05-14 21:12:00,
2013-05-14 17:17:00,58.2,28.0,29.71,SW,225,6.0,8.0,30,0.00,,,0.00,Rainwise IP-100,2013-05-14 21:17:00,
2013-05-14 17:22:00,58.6,29.0,29.71,SSW,202,0.0,9.0,31,0.00,,,0.00,Rainwise IP-100,2013-05-14 21:22:00,
2013-05-14 17:27:00,59.1,31.0,29.70,SSW,202,7.0,10.0,34,0.00,,,0.00,Rainwise IP-100,2013-05-14 21:27:00,
2013-05-14 17:32:00,59.1,29.0,29.70,SSW,202,7.0,10.0,32,0.00,,,0.00,Rainwise IP-100,2013-05-14 21:32:00,
2013-05-14 17:37:00,59.2,29.0,29.70,SE,135,6.0,10.0,32,0.00,,,0.00,Rainwise IP-100,2013-05-14 21:37:00,
2013-05-14 17:42:00,58.9,29.0,29.70,SW,225,3.0,10.0,31,0.00,,,0.00,Rainwise IP-100,2013-05-14 21:42:00,
2013-05-14 17:48:00,58.7,29.0,29.70,South,180,3.0,9.0,31,0.00,,,0.00,Rainwise IP-100,2013-05-14 21:48:00,
2013-05-14 17:53:00,57.8,31.0,29.70,West,270,6.0,7.0,34,0.00,,,0.00,Rainwise IP-100,2013-05-14 21:53:00,
2013-05-14 17:58:00,57.7,31.0,29.70,WNW,292,2.0,7.0,36,0.00,,,0.00,Rainwise IP-100,2013-05-14 21:58:00,
2013-05-14 18:03:00,57.2,35.0,29.70,ENE,67,6.0,7.0,43,0.00,,,0.00,Rainwise IP-100,2013-05-14 22:03:00,
2013-05-14 18:08:00,56.0,37.0,29.70,NE,45,6.0,9.0,48,0.00,,,0.00,Rainwise IP-100,2013-05-14 22:08:00,
2013-05-14 18:13:00,54.7,38.0,29.70,NNE,22,9.0,9.0,54,0.00,,,0.00,Rainwise IP-100,2013-05-14 22:13:00,
2013-05-14 18:18:00,53.9,39.0,29.70,NE,45,6.0,10.0,57,0.00,,,0.00,Rainwise IP-100,2013-05-14 22:18:00,
2013-05-14 18:23:00,53.6,38.0,29.70,NE,45,8.0,9.0,56,0.00,,,0.00,Rainwise IP-100,2013-05-14 22:23:00,
2013-05-14 18:29:00,53.3,39.0,29.70,NE,45,6.0,10.0,58,0.00,,,0.00,Rainwise IP-100,2013-05-14 22:29:00,
2013-05-14 18:34:00,52.9,38.0,29.69,NE,45,12.0,12.0,58,0.00,,,0.00,Rainwise IP-100,2013-05-14 22:34:00,
2013-05-14 18:39:00,52.7,39.0,29.69,NE,45,7.0,12.0,59,0.00,,,0.00,Rainwise IP-100,2013-05-14 22:39:00,
2013-05-14 18:44:00,52.5,39.0,29.69,NE,45,7.0,10.0,59,0.00,,,0.00,Rainwise IP-100,2013-05-14 22:44:00,
2013-05-14 18:49:00,52.4,39.0,29.69,ENE,67,6.0,9.0,61,0.00,,,0.00,Rainwise IP-100,2013-05-14 22:49:00,
2013-05-14 18:54:00,52.3,39.0,29.69,NE,45,6.0,9.0,62,0.00,,,0.00,Rainwise IP-100,2013-05-14 22:54:00,
2013-05-14 18:59:00,52.2,39.0,29.69,ENE,67,6.0,8.0,62,0.00,,,0.00,Rainwise IP-100,2013-05-14 22:59:00,
2013-05-14 19:05:00,52.0,39.0,29.69,ENE,67,7.0,9.0,62,0.00,,,0.00,Rainwise IP-100,2013-05-14 23:05:00,
2013-05-14 19:10:00,51.9,40.0,29.69,ENE,67,7.0,8.0,63,0.00,,,0.00,Rainwise IP-100,2013-05-14 23:10:00,
2013-05-14 19:15:00,51.9,40.0,29.69,ENE,67,6.0,7.0,64,0.00,,,0.00,Rainwise IP-100,2013-05-14 23:15:00,
2013-05-14 19:20:00,51.9,40.0,29.69,NE,45,4.0,7.0,63,0.00,,,0.00,Rainwise IP-100,2013-05-14 23:20:00,
2013-05-14 19:25:00,51.9,39.0,29.69,ENE,67,7.0,7.0,62,0.00,,,0.00,Rainwise IP-100,2013-05-14 23:25:00,
2013-05-14 19:30:00,51.9,39.0,29.69,ENE,67,5.0,8.0,61,0.00,,,0.00,Rainwise IP-100,2013-05-14 23:30:00,
2013-05-14 19:35:00,51.9,39.0,29.69,East,90,4.0,7.0,62,0.00,,,0.00,Rainwise IP-100,2013-05-14 23:35:00,
2013-05-14 19:40:00,51.9,39.0,29.69,ENE,67,5.0,8.0,62,0.00,,,0.00,Rainwise IP-100,2013-05-14 23:40:00,
2013-05-14 19:46:00,51.9,39.0,29.69,ENE,67,3.0,7.0,62,0.00,,,0.00,Rainwise IP-100,2013-05-14 23:46:00,
2013-05-14 19:51:00,51.8,39.0,29.70,NE,45,2.0,7.0,62,0.00,,,0.00,Rainwise IP-100,2013-05-14 23:51:00,
2013-05-14 19:56:00,51.8,40.0,29.69,NE,45,5.0,6.0,63,0.00,,,0.00,Rainwise IP-100,2013-05-14 23:56:00,
2013-05-14 20:01:00,51.7,40.0,29.70,ENE,67,5.0,6.0,63,0.00,,,0.00,Rainwise IP-100,2013-05-15 00:01:00,
2013-05-14 20:06:00,51.7,40.0,29.70,ENE,67,3.0,5.0,63,0.00,,,0.00,Rainwise IP-100,2013-05-15 00:06:00,
2013-05-14 20:11:00,51.6,40.0,29.70,ENE,67,2.0,5.0,65,0.00,,,0.00,Rainwise IP-100,2013-05-15 00:11:00,
2013-05-14 20:16:00,51.4,39.0,29.70,ENE,67,4.0,5.0,63,0.00,,,0.00,Rainwise IP-100,2013-05-15 00:16:00,
2013-05-14 20:21:00,51.3,39.0,29.70,NE,45,3.0,6.0,63,0.00,,,0.00,Rainwise IP-100,2013-05-15 00:21:00,
2013-05-14 20:27:00,51.2,39.0,29.70,ENE,67,6.0,6.0,64,0.00,,,0.00,Rainwise IP-100,2013-05-15 00:27:00,
2013-05-14 20:32:00,51.1,40.0,29.70,ENE,67,4.0,6.0,67,0.00,,,0.00,Rainwise IP-100,2013-05-15 00:32:00,
2013-05-14 20:37:00,50.8,42.0,29.70,ENE,67,4.0,7.0,70,0.00,,,0.00,Rainwise IP-100,2013-05-15 00:37:00,
2013-05-14 20:42:00,50.6,42.0,29.69,ENE,67,2.0,6.0,74,0.00,,,0.00,Rainwise IP-100,2013-05-15 00:42:00,
2013-05-14 20:47:00,50.5,43.0,29.69,ENE,67,3.0,4.0,75,0.00,,,0.00,Rainwise IP-100,2013-05-15 00:47:00,
2013-05-14 20:52:00,50.3,43.0,29.69,ENE,67,2.0,3.0,75,0.00,,,0.00,Rainwise IP-100,2013-05-15 00:52:00,
2013-05-14 20:57:00,50.5,43.0,29.69,East,90,3.0,5.0,75,0.00,,,0.00,Rainwise IP-100,2013-05-15 00:57:00,
2013-05-14 21:03:00,50.4,43.0,29.69,East,90,3.0,5.0,75,0.00,,,0.00,Rainwise IP-100,2013-05-15 01:03:00,
2013-05-14 21:08:00,50.4,43.0,29.68,East,90,2.0,4.0,76,0.00,,,0.00,Rainwise IP-100,2013-05-15 01:08:00,
2013-05-14 21:13:00,50.4,43.0,29.68,East,90,4.0,4.0,75,0.00,,,0.00,Rainwise IP-100,2013-05-15 01:13:00,
2013-05-14 21:18:00,50.4,43.0,29.68,East,90,1.0,5.0,75,0.00,,,0.00,Rainwise IP-100,2013-05-15 01:18:00,
2013-05-14 21:23:00,50.4,43.0,29.68,ESE,112,2.0,5.0,75,0.00,,,0.00,Rainwise IP-100,2013-05-15 01:23:00,
2013-05-14 21:28:00,50.4,43.0,29.68,ESE,112,5.0,5.0,75,0.00,,,0.00,Rainwise IP-100,2013-05-15 01:28:00,
2013-05-14 21:33:00,50.2,42.0,29.68,East,90,4.0,6.0,75,0.00,,,0.00,Rainwise IP-100,2013-05-15 01:33:00,
2013-05-14 21:38:00,50.3,43.0,29.68,ESE,112,5.0,6.0,75,0.00,,,0.00,Rainwise IP-100,2013-05-15 01:38:00,
2013-05-14 21:44:00,50.4,42.0,29.68,ESE,112,4.0,7.0,74,0.00,,,0.00,Rainwise IP-100,2013-05-15 01:44:00,
2013-05-14 21:49:00,50.5,42.0,29.68,East,90,6.0,7.0,73,0.00,,,0.00,Rainwise IP-100,2013-05-15 01:49:00,
2013-05-14 21:54:00,50.6,42.0,29.68,ESE,112,6.0,7.0,72,0.00,,,0.00,Rainwise IP-100,2013-05-15 01:54:00,
2013-05-14 21:59:00,50.6,41.0,29.68,ESE,112,7.0,9.0,71,0.00,,,0.00,Rainwise IP-100,2013-05-15 01:59:00,
2013-05-14 22:04:00,50.7,41.0,29.68,ESE,112,6.0,8.0,70,0.00,,,0.00,Rainwise IP-100,2013-05-15 02:04:00,
2013-05-14 22:09:00,50.7,41.0,29.68,ESE,112,3.0,7.0,70,0.00,,,0.00,Rainwise IP-100,2013-05-15 02:09:00,
2013-05-14 22:14:00,50.7,41.0,29.68,ESE,112,6.0,8.0,70,0.00,,,0.00,Rainwise IP-100,2013-05-15 02:14:00,
2013-05-14 22:20:00,50.7,41.0,29.67,ESE,112,5.0,9.0,70,0.00,,,0.00,Rainwise IP-100,2013-05-15 02:20:00,
2013-05-14 22:25:00,50.7,41.0,29.67,SE,135,5.0,7.0,70,0.00,,,0.00,Rainwise IP-100,2013-05-15 02:25:00,
2013-05-14 22:30:00,50.7,41.0,29.67,ESE,112,3.0,8.0,70,0.00,,,0.00,Rainwise IP-100,2013-05-15 02:30:00,
2013-05-14 22:35:00,50.5,41.0,29.67,ESE,112,5.0,8.0,70,0.00,,,0.00,Rainwise IP-100,2013-05-15 02:35:00,
2013-05-14 22:40:00,50.5,41.0,29.66,ESE,112,7.0,9.0,70,0.00,,,0.00,Rainwise IP-100,2013-05-15 02:40:00,
2013-05-14 22:45:00,50.4,41.0,29.66,SE,135,5.0,8.0,71,0.00,,,0.00,Rainwise IP-100,2013-05-15 02:45:00,
2013-05-14 22:50:00,50.3,41.0,29.66,SE,135,4.0,7.0,70,0.00,,,0.00,Rainwise IP-100,2013-05-15 02:50:00,
2013-05-14 22:55:00,50.3,41.0,29.66,ESE,112,5.0,9.0,71,0.00,,,0.00,Rainwise IP-100,2013-05-15 02:55:00,
2013-05-14 23:01:00,50.2,41.0,29.65,ESE,112,7.0,9.0,72,0.00,,,0.00,Rainwise IP-100,2013-05-15 03:01:00,
2013-05-14 23:06:00,50.1,41.0,29.65,SE,135,8.0,9.0,72,0.00,,,0.00,Rainwise IP-100,2013-05-15 03:06:00,
2013-05-14 23:11:00,50.2,41.0,29.64,East,90,7.0,9.0,72,0.00,,,0.00,Rainwise IP-100,2013-05-15 03:11:00,
2013-05-14 23:16:00,50.1,41.0,29.64,SE,135,9.0,9.0,72,0.00,,,0.00,Rainwise IP-100,2013-05-15 03:16:00,
2013-05-14 23:21:00,50.2,41.0,29.63,SE,135,5.0,10.0,72,0.00,,,0.00,Rainwise IP-100,2013-05-15 03:21:00,
2013-05-14 23:26:00,50.2,41.0,29.63,SE,135,6.0,10.0,73,0.00,,,0.00,Rainwise IP-100,2013-05-15 03:26:00,
2013-05-14 23:31:00,50.1,41.0,29.62,SE,135,7.0,9.0,73,0.00,,,0.00,Rainwise IP-100,2013-05-15 03:31:00,
2013-05-14 23:37:00,50.1,41.0,29.62,ESE,112,8.0,9.0,73,0.00,,,0.00,Rainwise IP-100,2013-05-15 03:37:00,
2013-05-14 23:42:00,50.0,42.0,29.62,SE,135,5.0,9.0,74,0.00,,,0.00,Rainwise IP-100,2013-05-15 03:42:00,
2013-05-14 23:47:00,50.0,42.0,29.62,ESE,112,8.0,9.0,74,0.00,,,0.00,Rainwise IP-100,2013-05-15 03:47:00,
2013-05-14 23:52:00,50.0,42.0,29.62,ESE,112,5.0,8.0,75,0.00,,,0.00,Rainwise IP-100,2013-05-15 03:52:00,
2013-05-14 23:57:00,50.0,42.0,29.62,SE,135,6.0,6.0,75,0.00,,,0.00,Rainwise IP-100,2013-05-15 03:57:00,